sat.trackr.live / text

‹ back to catalog

ALOS-4 (DAICHI-4)

NORAD 60182 · 2024-123A

PAYLOAD ACTIVE UNKNOWN

§ Identity

Operator
Country
JPN
Launch date
2024-07-01
Launch site
TANSC
Launch vehicle
Mass (kg)
RCS (m²)

Purposes: earth_obs

External: N2YO · Heavens-Above · Gunter

§ Orbital elements

Epoch: 2026-09-19T21:53:28.817376Z

Period
97.33 min
Inclination
97.9220°
Eccentricity
0.0001459
Mean motion
14.79471071 rev/d
Perigee alt
630.0 km
Apogee alt
632.0 km
Semi-major
7,009.1 km
B*
1.2056e-4
RAAN
358.7239°
Arg perigee
99.3814°
Mean anomaly
260.7563°
Rev number
11,988

§ Raw data

ALOS-4 (DAICHI-4)1 60182U 24123A   26262.91213909  .00000849  00000+0  12056-3 0  99982 60182  97.9220 358.7239 0001459  99.3814 260.7563 14.79471071119885

JSON: /api/v1/satellites/60182 · /tle

For live sub-satellite position, see the globe view (requires WebGL).

§ Visibility from observer

Set your observer location to see the next 7 days of passes ≥ 10°. The values pass through the URL so the page stays shareable.

No JS? Fill the form by hand. The geolocation button needs JavaScript.

§ Radio — SatNOGS DB

ModeDescriptionDownlinkUplink
BPSK S-band telemetry 2.220 GHz

1 transmitter · refreshed weekly from db.satnogs.org